Greenville, ME

9:37 PM EDT on October 21, 2019 (GMT -0400)
Greenville

Weather History for KGNR - August, 2019

Change the Weather History Date:

Friday, August 23, 2019

  Actual Average (WUND) Record (WUND)
Temperature  
Mean Temperature 62 °F -  
Max Temperature 71 °F - - (-1)
Min Temperature 55 °F - - (-1)
Degree Days  
Heating Degree Days 3    
Growing Degree Days 12 (Base 50)    
Moisture  
Dew Point 50 °F    
Average Humidity 68    
Maximum Humidity 93    
Minimum Humidity 47    
Precipitation  
Precipitation 0.00 in - - ()
Sea Level Pressure  
Sea Level Pressure 29.91 in    
Wind  
Wind Speed 6 mph ()    
Max Wind Speed 18 mph    
Max Gust Speed 26 mph    
Averages and records for this station are not official NWS values.
T = Trace of Precipitation, MM = Missing Value Source: Averaged Metar Reports

Daily Weather History Graph

Daily Weather History Graph

Search for Another Location

Airport or City:

Astronomy

Aug. 23, 2019 Rise Set
Actual Time 5:48 AM EDT 7:32 PM EDT
Civil Twilight 5:17 AM EDT 8:03 PM EDT
Nautical Twilight 4:38 AM EDT 8:42 PM EDT
Astronomical Twilight 3:56 AM EDT 9:23 PM EDT
Moon 11:34 PM EDT (8/23) 1:44 PM EDT (8/23)
Length of Visible Light 14h 46m
Length of Day
13h 44m
Waning Gibbous, 50% of the Moon is Illuminated
Aug 23
Waning Gibbous
Aug 30
New
Sep 5
First Quarter
Sep 14
Full
Sep 21
Last Quarter

Hourly Weather History & Observations

Time (EDT) Temp. Dew Point Humidity Pressure Visibility Wind Dir Wind Speed Gust Speed Precip Events Conditions
12:56 AM 59.0 °F 52.0 °F 78% 29.84 in - Calm Calm - N/A   Unknown
1:56 AM 57.9 °F 52.0 °F 81% 29.84 in - WNW 3.5 mph - N/A   Unknown
2:56 AM 59.0 °F 54.0 °F 83% 29.85 in - NW 5.8 mph - N/A   Unknown
3:56 AM 57.9 °F 54.0 °F 87% 29.84 in - Calm Calm - N/A   Unknown
4:56 AM 55.9 °F 54.0 °F 93% 29.84 in - Calm Calm - N/A   Unknown
5:56 AM 55.0 °F 53.1 °F 93% 29.86 in - Calm Calm - N/A   Unknown
6:56 AM 57.9 °F 54.0 °F 87% 29.88 in - NW 4.6 mph - N/A   Unknown
7:56 AM 60.1 °F 53.1 °F 78% 29.90 in - North - - N/A   Unknown
8:56 AM 63.0 °F 50.0 °F 63% 29.90 in - NW 9.2 mph 18.4 mph N/A   Unknown
9:56 AM 64.9 °F 50.0 °F 58% 29.90 in - NW 10.4 mph 17.3 mph N/A   Unknown
10:56 AM 66.0 °F 50.0 °F 56% 29.90 in - NW 12.7 mph 19.6 mph N/A   Unknown
11:56 AM 66.9 °F 50.0 °F 54% 29.90 in - NW 11.5 mph 21.9 mph N/A   Unknown
12:56 PM 69.1 °F 48.9 °F 49% 29.89 in - WNW 15.0 mph 24.2 mph N/A   Unknown
2:56 PM 68.0 °F 48.0 °F 49% 29.90 in - NW 13.8 mph 25.3 mph N/A   Unknown
3:56 PM 68.0 °F 46.9 °F 47% 29.92 in - NW 13.8 mph 20.7 mph N/A   Unknown
4:56 PM 66.9 °F 46.9 °F 49% 29.93 in - NW 16.1 mph 26.5 mph N/A   Unknown
5:56 PM 64.9 °F 48.0 °F 54% 29.95 in - NW 12.7 mph 19.6 mph N/A   Unknown
6:56 PM 62.1 °F 48.9 °F 62% 29.96 in - NW 9.2 mph 18.4 mph N/A   Unknown
7:56 PM 61.0 °F 48.9 °F 64% 29.97 in - NW 12.7 mph 21.9 mph N/A   Unknown
8:56 PM 59.0 °F 48.0 °F 67% 29.98 in - NW 16.1 mph 24.2 mph N/A   Unknown
9:56 PM 57.9 °F 48.9 °F 72% 29.98 in - NW 12.7 mph 24.2 mph N/A   Unknown
10:56 PM 57.0 °F 48.0 °F 72% 29.98 in - NNW 18.4 mph 26.5 mph N/A   Unknown
11:56 PM 55.9 °F 48.9 °F 77% 30.00 in - NW 11.5 mph - N/A   Unknown